User: anonymous   Login
Location: Unspecified
(0.0000°N, 0.0000°E)
Time: 04:02:22
(UTC+00:00)
Language:

Oscar 18 - Orbit

View from above orbital plane
View from above orbital plane
View from above satellite
View from above satellite

Ground track
Ground track

The orbit data is extracted from the following two-line orbital elements,

1 20441U 90005F   21342.55113716  .00000014  00000-0  21895-4 0  9990
2 20441  98.7925 304.5499 0011960  27.1124  90.7783 14.32898842665449
Epoch (UTC): 08 December 2021 13:13:38
Eccentricity: 0.0011960
inclination: 98.7925°
perigee height: 773 km
apogee height: 790 km
right ascension of ascending node: 304.5499°
argument of perigee: 27.1124°
revolutions per day: 14.32898842
mean anomaly at epoch: 90.7783°
orbit number at epoch: 66544

The dashed part of the orbit path shows where the satellite is in the earth's shadow,  

DLR